Tracking 21607 objects as of 23-Oct-2020
HD Live streaming from Space Station
objects crossing your sky now

COSMOS 873

Track COSMOS 873 now!
10-day predictions
COSMOS 873 is classified as:


NORAD ID: 9590
Int'l Code: 1976-118C
Perigee: 1,471.4 km
Apogee: 1,502.2 km
Inclination: 74.0 °
Period: 115.5 minutes
Semi major axis: 7857 km
RCS: 0.696 m2 (medium)
Launch date: December 7, 1976
Source: Commonwealth of Independent States (former USSR) (CIS)
Launch site: PLESETSK MISSILE AND SPACE COMPLEX (PKMTR)
aabbcc
Your satellite tracking list
Your tracking list is empty




NASA's NSSDC Master Catalog

Two Line Element Set (TLE):
1  9590U 76118C   20296.83122780 -.00000022 +00000-0 -46377-4 0  9993
2  9590 074.0310 333.3316 0019579 097.8163 076.7501 12.46379174996270
Source of the keplerian elements: AFSPC